ASNARO

Satellite information

Favourite Embed

Satellite Type and Status

PAYLOADIN ORBIT

Key statistics

Satellite ASNARO at a glance.

Uptime

4056

Days in orbit

Revolutions

≈ 15.2

Per day

Orbit

SSO

Sun Synchronous Orbit

Inclination

97.4

Latest

Satellite identification and parameters

Extended collection of information and parameters for ASNARO.

Object identification

Identified? True

Debris? False

Object name: ASNARO

International designator: 2014-070A

Object number (NORAD): 40298

Object ID (CCSDS): 40298

Country: JAPAN (JPN)

Current information (Y/N): Y

RCS size: LARGE

Orbital parameters

Period: 94.766 minutes

Inclination: 97.365 deg

SMA: 6885.387 km

Apoapsis: 511.132 km

Periapsis: 503.372 km

RAAN: 63.5847 deg

Eccentricy: 0.00056349

Argument of periapsis: 118.353 deg

Mean anomaly: 241.8274 deg

Mean motion: 15.19533369 rev/day

Mean motion (dot): 0.00018766 rev/day2

B* drag term: 0.00088440535 1/REarth

Two-line elements (TLE)

Creation date: Dec. 14, 2025, 3:07 a.m.

Reference frame: TEME

Reference center: EARTH

Epoch: Dec. 13, 2025, 3:52 p.m. UTC

TLE line 0: 0 ASNARO

TLE line 1: 1 40298U 14070A 25347.66114353 .00018766 00000-0 88441-3 0 9991

TLE line 2: 2 40298 97.3650 63.5847 0005635 118.3530 241.8274 15.19533369615834

Live tracking on map

Real-time ground track for satellite ASNARO.

In-orbit conjunctions

There are no conjunctions computed for ASNARO, at the moment. Check back to stay up to date, as we update our databases every day.

Go to all conjunctions

Associated space launch

ASNARO was lifted into orbit during the mission ‘Dnepr 1 | ASNARO’, on board a Dnepr space rocket.

The launch took place on Nov. 6, 2014, 7:35 a.m. from 370/13.

For more information about the launch, click the button.

Launch to space Dnepr 1 | ASNARO
Dnepr 1 | ASNARO

Agency: N/A

Status: Launch Successful

Launch date: Nov. 6, 2014, 7:35 a.m. UTC

Rocket: Dnepr

Launch pad: 370/13

Location: Dombarovskiy, Russian Federation

...

Latest news about this satellite

There are no fresh news available about this satellite. Check back as we update our databases every day.


Newsletter sign-up

Weekly statistics, charts and insights to help you stay on top of the space industry.